FDX135 SKRG-KMIA

Flight info

Callsign FDX135
Flight time 2h 52m
Altitude 36000
Route BUTAL3A BUTAL UP778 CTG UM779 OKUMO/N0477F380 UM779 ZEUSS VIICE2
Aircraft MD11/H-SDE1E2E3FGHIJ2J3J4J5M1RWXY/LB1D1

Departure

Time 2026-04-25 01:09
Airport Jose Maria Córdova International Airport (SKRG)

Arrival

Time 2026-04-25 04:01
Airport Miami International Airport (KMIA)
Time Latitude Longitude Altitude Speed Heading
2026-04-25 00:37 6.17592 -75.42676 6995 ft 0 kts 271°
2026-04-25 00:55 6.17592 -75.42667 7005 ft 4 kts 270°
2026-04-25 00:55 6.17592 -75.42640 6999 ft 4 kts 269°
2026-04-25 00:56 6.17593 -75.42622 6994 ft 4 kts 269°
2026-04-25 00:56 6.17592 -75.42601 6994 ft 4 kts 258°
2026-04-25 00:56 6.17590 -75.42593 6994 ft 4 kts 192°
2026-04-25 00:56 6.17614 -75.42591 6997 ft 4 kts 180°
2026-04-25 00:57 6.17640 -75.42592 6997 ft 3 kts 179°
2026-04-25 00:57 6.17643 -75.42592 6997 ft 0 kts 179°
2026-04-25 01:00 6.17621 -75.42591 7001 ft 7 kts 179°
2026-04-25 01:01 6.17579 -75.42581 6999 ft 3 kts 141°
2026-04-25 01:01 6.17574 -75.42575 6997 ft 0 kts 127°
2026-04-25 01:01 6.17566 -75.42547 6999 ft 7 kts 96°
2026-04-25 01:01 6.17563 -75.42513 6998 ft 5 kts 102°
2026-04-25 01:02 6.17531 -75.42478 6995 ft 5 kts 151°
2026-04-25 01:02 6.17510 -75.42479 6996 ft 9 kts 185°
2026-04-25 01:02 6.17405 -75.42487 7000 ft 15 kts 182°
2026-04-25 01:02 6.17300 -75.42488 6999 ft 17 kts 180°
2026-04-25 01:03 6.17188 -75.42487 6997 ft 15 kts 179°
2026-04-25 01:03 6.17089 -75.42486 6996 ft 17 kts 179°
2026-04-25 01:03 6.16946 -75.42486 6986 ft 21 kts 180°
2026-04-25 01:03 6.16814 -75.42486 6988 ft 17 kts 180°
2026-04-25 01:04 6.16699 -75.42486 6986 ft 19 kts 180°
2026-04-25 01:04 6.16548 -75.42485 6985 ft 24 kts 179°
2026-04-25 01:04 6.16383 -75.42484 6980 ft 22 kts 179°
2026-04-25 01:04 6.16244 -75.42482 6979 ft 18 kts 179°
2026-04-25 01:05 6.16124 -75.42481 6977 ft 18 kts 179°
2026-04-25 01:05 6.15969 -75.42480 6974 ft 29 kts 179°
2026-04-25 01:05 6.15731 -75.42477 6970 ft 34 kts 179°
2026-04-25 01:05 6.15517 -75.42475 6966 ft 28 kts 180°
2026-04-25 01:06 6.15340 -75.42475 6963 ft 23 kts 180°
2026-04-25 01:06 6.15189 -75.42472 6960 ft 22 kts 179°
2026-04-25 01:06 6.15022 -75.42470 6957 ft 25 kts 179°
2026-04-25 01:06 6.14899 -75.42480 6958 ft 14 kts 192°
2026-04-25 01:07 6.14827 -75.42468 6957 ft 6 kts 137°
2026-04-25 01:07 6.14818 -75.42442 6957 ft 3 kts 100°
2026-04-25 01:07 6.14817 -75.42427 6954 ft 2 kts 94°
2026-04-25 01:07 6.14828 -75.42388 6957 ft 11 kts 61°
2026-04-25 01:08 6.14889 -75.42342 6957 ft 10 kts 32°
2026-04-25 01:08 6.14938 -75.42310 6959 ft 8 kts 26°
2026-04-25 01:08 6.15025 -75.42297 6958 ft 29 kts
2026-04-25 01:08 6.15473 -75.42301 6968 ft 98 kts 359°
2026-04-25 01:09 6.16361 -75.42309 6979 ft 154 kts 359°
2026-04-25 01:09 6.17563 -75.42321 7101 ft 183 kts 359°
2026-04-25 01:09 6.18843 -75.42352 7676 ft 187 kts 358°
2026-04-25 01:09 6.20151 -75.42388 8275 ft 188 kts 359°
2026-04-25 01:10 6.21456 -75.42390 8792 ft 193 kts 359°
2026-04-25 01:10 6.22829 -75.42389 9290 ft 196 kts 359°
2026-04-25 01:10 6.24196 -75.42391 9805 ft 197 kts 358°
2026-04-25 01:10 6.25579 -75.42395 10229 ft 205 kts 358°
2026-04-25 01:11 6.27095 -75.42402 10349 ft 231 kts 358°
2026-04-25 01:11 6.28781 -75.42411 10490 ft 253 kts 359°
2026-04-25 01:11 6.30571 -75.42421 10611 ft 268 kts 358°
2026-04-25 01:11 6.32479 -75.42429 10822 ft 277 kts 359°
2026-04-25 01:12 6.34406 -75.42419 11182 ft 277 kts 359°
2026-04-25 01:12 6.36342 -75.42400 11702 ft 279 kts 359°
2026-04-25 01:12 6.38313 -75.42378 12439 ft 280 kts 359°
2026-04-25 01:12 6.40342 -75.42358 12725 ft 301 kts 359°
2026-04-25 01:13 6.42428 -75.42341 13381 ft 306 kts 359°
2026-04-25 01:13 6.44571 -75.42365 14031 ft 314 kts 358°
2026-04-25 01:13 6.46842 -75.42414 14154 ft 338 kts 357°
2026-04-25 01:13 6.49277 -75.42475 14266 ft 361 kts 357°
2026-04-25 01:14 6.51865 -75.42539 14405 ft 382 kts 358°
2026-04-25 01:14 6.54537 -75.42605 14934 ft 388 kts 358°
2026-04-25 01:14 6.57260 -75.42669 15542 ft 392 kts 358°
2026-04-25 01:14 6.60000 -75.42734 16190 ft 396 kts 357°
2026-04-25 01:15 6.62770 -75.42800 16815 ft 400 kts 357°
2026-04-25 01:15 6.65565 -75.42866 17437 ft 404 kts 357°
2026-04-25 01:15 6.68388 -75.42934 18079 ft 408 kts 357°
2026-04-25 01:15 6.71241 -75.43002 18655 ft 412 kts 357°
2026-04-25 01:16 6.74117 -75.43070 19201 ft 415 kts 358°
2026-04-25 01:16 6.77016 -75.43139 19730 ft 418 kts 358°
2026-04-25 01:16 6.79938 -75.43209 20241 ft 422 kts 358°
2026-04-25 01:16 6.82879 -75.43279 20760 ft 425 kts 358°
2026-04-25 01:17 6.85848 -75.43350 21280 ft 428 kts 358°
2026-04-25 01:17 6.88843 -75.43421 21786 ft 432 kts 358°
2026-04-25 01:17 6.91853 -75.43493 22280 ft 435 kts 358°
2026-04-25 01:17 6.94896 -75.43566 22801 ft 438 kts 358°
2026-04-25 01:18 6.97956 -75.43639 23300 ft 442 kts 358°
2026-04-25 01:18 7.01043 -75.43712 23798 ft 445 kts 358°
2026-04-25 01:18 7.04151 -75.43786 24203 ft 448 kts 358°
2026-04-25 01:18 7.07283 -75.43861 24565 ft 452 kts 358°
2026-04-25 01:19 7.10439 -75.43937 24961 ft 455 kts 358°
2026-04-25 01:19 7.13618 -75.44013 25339 ft 459 kts 358°
2026-04-25 01:19 7.16824 -75.44089 25717 ft 463 kts 358°
2026-04-25 01:19 7.20057 -75.44166 26101 ft 466 kts 358°
2026-04-25 01:20 7.23316 -75.44244 26454 ft 470 kts 358°
2026-04-25 01:20 7.26597 -75.44323 26854 ft 473 kts 359°
2026-04-25 01:20 7.29897 -75.44402 27217 ft 476 kts 359°
2026-04-25 01:20 7.33222 -75.44481 27601 ft 479 kts 359°
2026-04-25 01:21 7.36564 -75.44561 27902 ft 483 kts 358°
2026-04-25 01:21 7.39935 -75.44642 28249 ft 486 kts 358°
2026-04-25 01:21 7.43325 -75.44723 28610 ft 489 kts 358°
2026-04-25 01:21 7.46735 -75.44804 28950 ft 492 kts 358°
2026-04-25 01:22 7.50169 -75.44887 29249 ft 495 kts 358°
2026-04-25 01:22 7.53620 -75.44969 29581 ft 498 kts 358°
2026-04-25 01:22 7.57094 -75.45053 29924 ft 501 kts 359°
2026-04-25 01:22 7.60541 -75.45135 30247 ft 504 kts 359°
2026-04-25 01:23 7.64053 -75.45219 30563 ft 506 kts 359°
2026-04-25 01:23 7.67576 -75.45304 30939 ft 506 kts 359°
2026-04-25 01:23 7.71099 -75.45388 31361 ft 506 kts 359°
2026-04-25 01:23 7.74614 -75.45472 31808 ft 504 kts 358°
2026-04-25 01:24 7.78167 -75.45557 32236 ft 504 kts 358°
2026-04-25 01:24 7.81669 -75.45641 32589 ft 504 kts 359°
2026-04-25 01:24 7.85128 -75.45723 32958 ft 504 kts 359°
2026-04-25 01:24 7.88679 -75.45801 33331 ft 504 kts 359°
2026-04-25 01:25 7.92135 -75.45874 33687 ft 504 kts 359°
2026-04-25 01:25 7.95638 -75.45946 34007 ft 504 kts 359°
2026-04-25 01:25 7.99142 -75.46018 34306 ft 503 kts 359°
2026-04-25 01:25 8.02642 -75.46090 34610 ft 503 kts 359°
2026-04-25 01:26 8.06134 -75.46249 34862 ft 502 kts 353°
2026-04-25 01:26 8.09578 -75.46823 35136 ft 502 kts 347°
2026-04-25 01:26 8.12980 -75.47616 35399 ft 502 kts 346°
2026-04-25 01:26 8.16370 -75.48452 35666 ft 501 kts 346°
2026-04-25 01:27 8.19766 -75.49257 35889 ft 502 kts 347°
2026-04-25 01:27 8.26639 -75.50740 35959 ft 505 kts 348°
2026-04-25 01:28 8.36937 -75.52792 35959 ft 502 kts 348°
2026-04-25 01:28 8.43798 -75.54151 35957 ft 502 kts 348°
2026-04-25 01:29 8.50657 -75.55518 35952 ft 502 kts 348°
2026-04-25 01:29 8.57517 -75.56888 35949 ft 502 kts 348°
2026-04-25 01:30 8.64375 -75.58258 35941 ft 503 kts 348°
2026-04-25 01:30 8.71239 -75.59630 35928 ft 503 kts 348°
2026-04-25 01:31 8.78102 -75.61002 35927 ft 503 kts 348°
2026-04-25 01:31 8.84962 -75.62374 35920 ft 502 kts 348°
2026-04-25 01:32 8.91799 -75.63743 35923 ft 500 kts 348°
2026-04-25 01:32 8.98631 -75.65111 35923 ft 501 kts 348°
2026-04-25 01:33 9.05421 -75.66471 35922 ft 501 kts 348°
2026-04-25 01:33 9.12258 -75.67840 35926 ft 501 kts 348°
2026-04-25 01:34 9.19090 -75.69208 35929 ft 501 kts 348°
2026-04-25 01:34 9.25922 -75.70578 35930 ft 500 kts 348°
2026-04-25 01:35 9.32754 -75.71948 35929 ft 500 kts 348°
2026-04-25 01:35 9.39580 -75.73317 35930 ft 500 kts 348°
2026-04-25 01:36 9.46407 -75.74687 35932 ft 500 kts 348°
2026-04-25 01:36 9.53237 -75.76059 35929 ft 500 kts 348°
2026-04-25 01:37 9.60063 -75.77429 35932 ft 501 kts 347°
2026-04-25 01:37 9.66899 -75.78803 35930 ft 501 kts 347°
2026-04-25 01:38 9.73745 -75.80181 35933 ft 502 kts 347°
2026-04-25 01:38 9.80599 -75.81560 35931 ft 502 kts 347°
2026-04-25 01:39 9.87455 -75.82939 35928 ft 502 kts 347°
2026-04-25 01:39 9.94308 -75.84318 35934 ft 502 kts 347°
2026-04-25 01:40 10.01160 -75.85698 35927 ft 502 kts 347°
2026-04-25 01:40 10.08013 -75.87078 35929 ft 502 kts 347°
2026-04-25 01:41 10.14864 -75.88459 35929 ft 502 kts 347°
2026-04-25 01:41 10.21718 -75.89841 35931 ft 502 kts 347°
2026-04-25 01:42 10.28571 -75.91223 35935 ft 502 kts 346°
2026-04-25 01:42 10.34261 -75.92371 35932 ft 501 kts 346°
2026-04-25 01:43 10.42214 -75.93977 35935 ft 501 kts 346°
2026-04-25 01:43 10.47945 -75.95134 35930 ft 501 kts 346°
2026-04-25 01:44 10.55901 -75.96743 35933 ft 501 kts 346°
2026-04-25 01:44 10.61633 -75.97903 35933 ft 501 kts 346°
2026-04-25 01:45 10.68476 -75.99287 35934 ft 501 kts 346°
2026-04-25 01:45 10.75317 -76.00671 35934 ft 501 kts 346°
2026-04-25 01:46 10.82104 -76.02045 35930 ft 501 kts 346°
2026-04-25 01:46 10.88942 -76.03430 35935 ft 501 kts 346°
2026-04-25 01:47 10.95777 -76.04814 35933 ft 501 kts 346°
2026-04-25 01:47 11.02612 -76.06199 35932 ft 500 kts 346°
2026-04-25 01:48 11.09428 -76.07582 35935 ft 499 kts 346°
2026-04-25 01:48 11.16241 -76.08964 35934 ft 499 kts 346°
2026-04-25 01:49 11.23058 -76.10348 35937 ft 499 kts 346°
2026-04-25 01:49 11.29873 -76.11732 35933 ft 499 kts 346°
2026-04-25 01:50 11.36688 -76.13118 35933 ft 499 kts 346°
2026-04-25 01:50 11.43489 -76.14502 35933 ft 498 kts 346°
2026-04-25 01:51 11.50289 -76.15885 35934 ft 498 kts 346°
2026-04-25 01:51 11.57091 -76.17270 35939 ft 499 kts 346°
2026-04-25 01:52 11.63896 -76.18655 35937 ft 499 kts 346°
2026-04-25 01:52 11.70697 -76.20040 35943 ft 499 kts 346°
2026-04-25 01:53 11.77503 -76.21427 35932 ft 498 kts 345°
2026-04-25 01:53 11.84305 -76.22814 35937 ft 499 kts 345°
2026-04-25 01:54 11.91107 -76.24202 35936 ft 498 kts 345°
2026-04-25 01:54 11.97910 -76.25590 35937 ft 498 kts 345°
2026-04-25 01:55 12.04712 -76.26980 35937 ft 498 kts 345°
2026-04-25 01:55 12.11511 -76.28368 35944 ft 498 kts 345°
2026-04-25 01:56 12.18294 -76.29756 35934 ft 497 kts 345°
2026-04-25 01:56 12.25075 -76.31145 35925 ft 497 kts 345°
2026-04-25 01:57 12.35245 -76.33227 35939 ft 497 kts 345°
2026-04-25 01:58 12.41982 -76.34606 35940 ft 497 kts 345°
2026-04-25 01:58 12.48759 -76.35994 35935 ft 496 kts 345°
2026-04-25 01:59 12.55565 -76.37389 35938 ft 496 kts 345°
2026-04-25 01:59 12.62327 -76.38777 35938 ft 496 kts 345°
2026-04-25 02:00 12.69092 -76.40166 35941 ft 496 kts 345°
2026-04-25 02:00 12.75814 -76.41546 35940 ft 496 kts 345°
2026-04-25 02:01 12.82624 -76.42945 35944 ft 496 kts 344°
2026-04-25 02:01 12.89344 -76.44326 35940 ft 496 kts 344°
2026-04-25 02:02 12.96151 -76.45727 35938 ft 496 kts 344°
2026-04-25 02:02 13.02911 -76.47120 35936 ft 496 kts 344°
2026-04-25 02:03 13.09671 -76.48513 35937 ft 496 kts 344°
2026-04-25 02:03 13.16387 -76.49897 35942 ft 496 kts 344°
2026-04-25 02:04 13.23143 -76.51289 35938 ft 495 kts 344°
2026-04-25 02:04 13.29883 -76.52679 35938 ft 494 kts 344°
2026-04-25 02:05 13.36623 -76.54071 35943 ft 494 kts 344°
2026-04-25 02:05 13.43364 -76.55463 35942 ft 494 kts 344°
2026-04-25 02:06 13.50101 -76.56855 35951 ft 494 kts 343°
2026-04-25 02:06 13.56831 -76.58245 35942 ft 492 kts 343°
2026-04-25 02:07 13.63541 -76.59633 35943 ft 492 kts 343°
2026-04-25 02:07 13.70257 -76.61024 35941 ft 492 kts 343°
2026-04-25 02:08 13.76970 -76.62415 35942 ft 492 kts 343°
2026-04-25 02:08 13.83682 -76.63807 35942 ft 492 kts 343°
2026-04-25 02:09 13.90401 -76.65201 35946 ft 492 kts 343°
2026-04-25 02:09 13.97116 -76.66595 35947 ft 492 kts 343°
2026-04-25 02:10 14.03833 -76.67989 35941 ft 492 kts 343°
2026-04-25 02:10 14.10551 -76.69385 35943 ft 492 kts 343°
2026-04-25 02:11 14.17269 -76.70781 35947 ft 492 kts 343°
2026-04-25 02:11 14.23984 -76.72177 35945 ft 492 kts 343°
2026-04-25 02:12 14.30658 -76.73566 35940 ft 492 kts 343°
2026-04-25 02:12 14.37372 -76.74964 35943 ft 492 kts 343°
2026-04-25 02:13 14.44079 -76.76361 35946 ft 492 kts 343°
2026-04-25 02:13 14.50784 -76.77759 35946 ft 492 kts 343°
2026-04-25 02:14 14.57495 -76.79159 35958 ft 492 kts 342°
2026-04-25 02:14 14.64221 -76.80566 35944 ft 494 kts 342°
2026-04-25 02:15 14.70955 -76.81974 35947 ft 494 kts 342°
2026-04-25 02:15 14.77684 -76.83380 35954 ft 494 kts 342°
2026-04-25 02:16 14.84420 -76.84789 35946 ft 494 kts 342°
2026-04-25 02:16 14.91153 -76.86197 35964 ft 493 kts 342°
2026-04-25 02:17 14.97869 -76.87603 35946 ft 489 kts 342°
2026-04-25 02:17 15.04478 -76.89061 35948 ft 483 kts 341°
2026-04-25 02:18 15.11046 -76.90586 35948 ft 485 kts 341°
2026-04-25 02:18 15.17627 -76.92118 35954 ft 485 kts 341°
2026-04-25 02:19 15.24209 -76.93642 35951 ft 485 kts 341°
2026-04-25 02:19 15.30786 -76.95161 35950 ft 483 kts 341°
2026-04-25 02:20 15.37322 -76.96671 35949 ft 481 kts 341°
2026-04-25 02:20 15.43853 -76.98184 35950 ft 481 kts 341°
2026-04-25 02:21 15.50390 -76.99699 35953 ft 481 kts 341°
2026-04-25 02:21 15.56925 -77.01214 35952 ft 481 kts 341°
2026-04-25 02:22 15.63458 -77.02729 35956 ft 481 kts 341°
2026-04-25 02:22 15.69977 -77.04241 35952 ft 479 kts 341°
2026-04-25 02:23 15.76491 -77.05753 35953 ft 480 kts 341°
2026-04-25 02:23 15.83005 -77.07268 35952 ft 480 kts 341°
2026-04-25 02:24 15.89519 -77.08786 35951 ft 480 kts 341°
2026-04-25 02:24 15.96030 -77.10302 35974 ft 479 kts 341°
2026-04-25 02:25 16.02524 -77.11813 35956 ft 476 kts 342°
2026-04-25 02:25 16.08981 -77.13317 35956 ft 475 kts 342°
2026-04-25 02:26 16.15443 -77.14825 35953 ft 476 kts 342°
2026-04-25 02:26 16.21901 -77.16331 35955 ft 476 kts 342°
2026-04-25 02:27 16.28358 -77.17839 35956 ft 476 kts 342°
2026-04-25 02:27 16.34769 -77.19337 35959 ft 473 kts 342°
2026-04-25 02:28 16.41159 -77.20828 35954 ft 469 kts 342°
2026-04-25 02:28 16.47522 -77.22318 35955 ft 470 kts 342°
2026-04-25 02:29 16.53891 -77.23813 35954 ft 468 kts 343°
2026-04-25 02:29 16.59188 -77.25054 35954 ft 463 kts 343°
2026-04-25 02:30 16.65474 -77.26529 35970 ft 464 kts 343°
2026-04-25 02:30 16.71720 -77.27996 35956 ft 462 kts 343°
2026-04-25 02:31 16.77982 -77.29466 35957 ft 461 kts 343°
2026-04-25 02:31 16.84247 -77.30940 35958 ft 462 kts 343°
2026-04-25 02:32 16.90513 -77.32414 35953 ft 462 kts 343°
2026-04-25 02:32 16.96779 -77.33888 35955 ft 462 kts 343°
2026-04-25 02:33 17.03045 -77.35364 35963 ft 461 kts 343°
2026-04-25 02:33 17.09285 -77.36833 35957 ft 459 kts 342°
2026-04-25 02:34 17.15512 -77.38302 35961 ft 459 kts 342°
2026-04-25 02:34 17.21743 -77.39773 35955 ft 459 kts 342°
2026-04-25 02:35 17.27971 -77.41244 35958 ft 459 kts 342°
2026-04-25 02:35 17.34201 -77.42718 35958 ft 459 kts 342°
2026-04-25 02:36 17.40417 -77.44190 35961 ft 456 kts 342°
2026-04-25 02:36 17.46541 -77.45639 35958 ft 454 kts 342°
2026-04-25 02:37 17.52705 -77.47104 35955 ft 455 kts 342°
2026-04-25 02:37 17.58874 -77.48575 35955 ft 454 kts 342°
2026-04-25 02:38 17.65039 -77.50046 35958 ft 454 kts 342°
2026-04-25 02:38 17.71208 -77.51518 35956 ft 455 kts 342°
2026-04-25 02:39 17.77375 -77.52991 35961 ft 455 kts 342°
2026-04-25 02:39 17.83544 -77.54466 35963 ft 455 kts 342°
2026-04-25 02:40 17.89708 -77.55940 35965 ft 454 kts 342°
2026-04-25 02:40 17.95865 -77.57413 35962 ft 454 kts 342°
2026-04-25 02:41 18.02025 -77.58889 35973 ft 454 kts 342°
2026-04-25 02:41 18.08176 -77.60362 35970 ft 451 kts 342°
2026-04-25 02:42 18.14260 -77.61820 35969 ft 447 kts 342°
2026-04-25 02:42 18.20332 -77.63279 35976 ft 448 kts 342°
2026-04-25 02:43 18.26417 -77.64742 35974 ft 449 kts 342°
2026-04-25 02:43 18.32502 -77.66205 35988 ft 449 kts 342°
2026-04-25 02:44 18.38587 -77.67672 36000 ft 449 kts 342°
2026-04-25 02:44 18.44656 -77.69133 35982 ft 446 kts 342°
2026-04-25 02:45 18.50697 -77.70588 35979 ft 446 kts 342°
2026-04-25 02:45 18.56743 -77.72047 35980 ft 446 kts 342°
2026-04-25 02:46 18.62790 -77.73506 35978 ft 446 kts 342°
2026-04-25 02:46 18.68835 -77.74965 35981 ft 446 kts 342°
2026-04-25 02:47 18.74881 -77.76426 35987 ft 445 kts 342°
2026-04-25 02:47 18.80895 -77.77878 35976 ft 442 kts 342°
2026-04-25 02:48 18.86893 -77.79330 35972 ft 443 kts 342°
2026-04-25 02:48 18.92859 -77.80776 35974 ft 443 kts 342°
2026-04-25 02:49 18.98866 -77.82231 35973 ft 443 kts 342°
2026-04-25 02:49 19.04870 -77.83687 35971 ft 443 kts 342°
2026-04-25 02:50 19.10877 -77.85144 35980 ft 441 kts 342°
2026-04-25 02:50 19.16850 -77.86597 35970 ft 440 kts 342°
2026-04-25 02:51 19.22822 -77.88052 35980 ft 441 kts 342°
2026-04-25 02:51 19.28798 -77.89506 35970 ft 441 kts 342°
2026-04-25 02:52 19.34775 -77.90961 35976 ft 441 kts 342°
2026-04-25 02:52 19.40751 -77.92416 35983 ft 441 kts 342°
2026-04-25 02:53 19.46702 -77.93865 35971 ft 437 kts 342°
2026-04-25 02:53 19.52615 -77.95308 35971 ft 437 kts 342°
2026-04-25 02:54 19.58535 -77.96754 35970 ft 436 kts 342°
2026-04-25 02:54 19.64440 -77.98197 35972 ft 435 kts 342°
2026-04-25 02:55 19.70339 -77.99639 35970 ft 435 kts 342°
2026-04-25 02:55 19.76279 -78.00963 35983 ft 436 kts 344°
2026-04-25 02:56 19.82237 -78.02049 35968 ft 433 kts 345°
2026-04-25 02:56 19.88192 -78.03104 35973 ft 434 kts 345°
2026-04-25 02:57 19.94149 -78.04174 35963 ft 434 kts 345°
2026-04-25 02:57 20.00098 -78.05252 35961 ft 434 kts 345°
2026-04-25 02:58 20.06051 -78.06333 35965 ft 434 kts 345°
2026-04-25 02:58 20.12003 -78.07414 35967 ft 432 kts 345°
2026-04-25 02:59 20.17884 -78.08483 35966 ft 432 kts 345°
2026-04-25 02:59 20.23805 -78.09561 35966 ft 432 kts 345°
2026-04-25 03:00 20.29731 -78.10641 35960 ft 432 kts 345°
2026-04-25 03:00 20.35653 -78.11720 35968 ft 432 kts 345°
2026-04-25 03:01 20.41576 -78.12800 35983 ft 432 kts 344°
2026-04-25 03:01 20.47508 -78.13883 35971 ft 433 kts 344°
2026-04-25 03:02 20.53448 -78.14969 35969 ft 433 kts 344°
2026-04-25 03:02 20.59389 -78.16056 35963 ft 433 kts 344°
2026-04-25 03:03 20.65330 -78.17145 35964 ft 433 kts 344°
2026-04-25 03:03 20.71269 -78.18233 35960 ft 433 kts 344°
2026-04-25 03:04 20.77210 -78.19322 35972 ft 433 kts 344°
2026-04-25 03:04 20.83155 -78.20413 35966 ft 434 kts 344°
2026-04-25 03:05 20.92080 -78.22051 35966 ft 434 kts 344°
2026-04-25 03:05 20.97986 -78.23136 35966 ft 434 kts 344°
2026-04-25 03:06 21.03934 -78.24230 35965 ft 434 kts 344°
2026-04-25 03:06 21.09879 -78.25325 35966 ft 434 kts 344°
2026-04-25 03:07 21.15827 -78.26418 35967 ft 434 kts 344°
2026-04-25 03:07 21.21777 -78.27510 35966 ft 434 kts 344°
2026-04-25 03:08 21.27726 -78.28602 35965 ft 434 kts 344°
2026-04-25 03:08 21.33671 -78.29695 35966 ft 434 kts 344°
2026-04-25 03:09 21.39622 -78.30789 35986 ft 434 kts 344°
2026-04-25 03:09 21.45586 -78.31888 35964 ft 436 kts 344°
2026-04-25 03:10 21.51562 -78.32989 35963 ft 436 kts 344°
2026-04-25 03:10 21.57501 -78.34083 35964 ft 436 kts 344°
2026-04-25 03:11 21.63477 -78.35186 35959 ft 436 kts 344°
2026-04-25 03:11 21.69453 -78.36289 35963 ft 436 kts 344°
2026-04-25 03:12 21.75429 -78.37394 35975 ft 436 kts 344°
2026-04-25 03:12 21.81414 -78.38502 35966 ft 437 kts 344°
2026-04-25 03:13 21.87406 -78.39611 35965 ft 437 kts 344°
2026-04-25 03:13 21.93393 -78.40721 35960 ft 437 kts 344°
2026-04-25 03:14 21.99379 -78.41834 35966 ft 437 kts 344°
2026-04-25 03:14 22.05368 -78.42947 35988 ft 437 kts 344°
2026-04-25 03:15 22.11353 -78.44059 35969 ft 436 kts 344°
2026-04-25 03:15 22.17331 -78.45170 35967 ft 436 kts 344°
2026-04-25 03:16 22.23313 -78.46284 35965 ft 436 kts 344°
2026-04-25 03:16 22.29297 -78.47399 35967 ft 436 kts 344°
2026-04-25 03:17 22.35280 -78.48514 35964 ft 436 kts 344°
2026-04-25 03:17 22.41263 -78.49631 35965 ft 436 kts 343°
2026-04-25 03:18 22.47209 -78.50741 35966 ft 437 kts 343°
2026-04-25 03:18 22.53196 -78.51861 35968 ft 437 kts 343°
2026-04-25 03:19 22.59182 -78.52982 35965 ft 437 kts 343°
2026-04-25 03:19 22.64200 -78.53921 35964 ft 437 kts 343°
2026-04-25 03:20 22.70190 -78.55042 35992 ft 437 kts 343°
2026-04-25 03:20 22.76191 -78.56167 35968 ft 438 kts 343°
2026-04-25 03:21 22.82201 -78.57300 35968 ft 438 kts 343°
2026-04-25 03:21 22.88213 -78.58436 35968 ft 438 kts 343°
2026-04-25 03:22 22.94182 -78.59565 35972 ft 438 kts 343°
2026-04-25 03:22 23.00192 -78.60703 35972 ft 438 kts 343°
2026-04-25 03:23 23.06246 -78.61849 35977 ft 439 kts 343°
2026-04-25 03:23 23.12215 -78.62981 35972 ft 439 kts 343°
2026-04-25 03:24 23.18225 -78.64121 35972 ft 439 kts 343°
2026-04-25 03:24 23.24237 -78.65263 35974 ft 439 kts 343°
2026-04-25 03:25 23.30250 -78.66406 35971 ft 439 kts 343°
2026-04-25 03:25 23.36262 -78.67551 35986 ft 439 kts 343°
2026-04-25 03:26 23.42280 -78.68697 35974 ft 439 kts 343°
2026-04-25 03:26 23.48279 -78.69839 35973 ft 437 kts 343°
2026-04-25 03:27 23.54262 -78.70981 35973 ft 436 kts 343°
2026-04-25 03:27 23.60247 -78.72125 35976 ft 437 kts 343°
2026-04-25 03:28 23.66227 -78.73272 36004 ft 437 kts 343°
2026-04-25 03:28 23.72219 -78.74421 35976 ft 438 kts 343°
2026-04-25 03:29 23.78222 -78.75571 35978 ft 438 kts 343°
2026-04-25 03:29 23.84222 -78.76720 35979 ft 438 kts 343°
2026-04-25 03:30 23.90225 -78.77872 35978 ft 438 kts 343°
2026-04-25 03:30 23.96228 -78.79025 35980 ft 438 kts 343°
2026-04-25 03:31 24.02051 -78.80707 35983 ft 428 kts 330°
2026-04-25 03:31 24.07192 -78.83920 35980 ft 425 kts 323°
2026-04-25 03:32 24.12132 -78.87395 35983 ft 425 kts 323°
2026-04-25 03:32 24.17145 -78.90826 35982 ft 425 kts 324°
2026-04-25 03:33 24.22195 -78.94210 35982 ft 425 kts 324°
2026-04-25 03:33 24.27243 -78.97572 35985 ft 425 kts 324°
2026-04-25 03:34 24.32305 -79.00946 35985 ft 425 kts 324°
2026-04-25 03:34 24.37361 -79.04322 35985 ft 425 kts 324°
2026-04-25 03:35 24.42392 -79.07681 35867 ft 417 kts 324°
2026-04-25 03:35 24.44844 -79.09317 35712 ft 409 kts 324°
2026-04-25 03:35 24.47270 -79.10939 35465 ft 410 kts 324°
2026-04-25 03:36 24.49706 -79.12571 35122 ft 410 kts 324°
2026-04-25 03:36 24.52148 -79.14206 34641 ft 412 kts 324°
2026-04-25 03:36 24.54599 -79.15845 34130 ft 413 kts 324°
2026-04-25 03:36 24.57057 -79.17486 33584 ft 414 kts 324°
2026-04-25 03:37 24.59528 -79.19136 33046 ft 417 kts 324°
2026-04-25 03:37 24.62010 -79.20793 32554 ft 419 kts 324°
2026-04-25 03:37 24.64513 -79.22465 32039 ft 422 kts 324°
2026-04-25 03:37 24.67032 -79.24147 31521 ft 425 kts 324°
2026-04-25 03:38 24.69563 -79.25838 31002 ft 427 kts 324°
2026-04-25 03:38 24.72112 -79.27541 30481 ft 430 kts 324°
2026-04-25 03:38 24.74674 -79.29255 29918 ft 432 kts 324°
2026-04-25 03:38 24.77246 -79.30976 29310 ft 434 kts 324°
2026-04-25 03:39 24.79835 -79.32709 28741 ft 437 kts 325°
2026-04-25 03:39 24.82437 -79.34452 28177 ft 438 kts 325°
2026-04-25 03:39 24.85036 -79.36195 27630 ft 437 kts 325°
2026-04-25 03:39 24.87622 -79.37930 27056 ft 434 kts 325°
2026-04-25 03:40 24.90189 -79.39652 26504 ft 431 kts 325°
2026-04-25 03:40 24.92743 -79.41366 25954 ft 428 kts 325°
2026-04-25 03:40 24.95281 -79.43070 25408 ft 426 kts 325°
2026-04-25 03:40 24.97803 -79.44764 24856 ft 423 kts 325°
2026-04-25 03:41 25.00273 -79.46424 24332 ft 421 kts 325°
2026-04-25 03:41 25.02764 -79.48099 23947 ft 417 kts 325°
2026-04-25 03:41 25.05226 -79.49754 23765 ft 408 kts 325°
2026-04-25 03:41 25.07582 -79.51334 23547 ft 387 kts 325°
2026-04-25 03:42 25.09858 -79.52866 23102 ft 380 kts 325°
2026-04-25 03:42 25.11904 -79.54251 22551 ft 373 kts 325°
2026-04-25 03:42 25.14093 -79.55737 21961 ft 368 kts 325°
2026-04-25 03:42 25.16271 -79.57218 21383 ft 367 kts 325°
2026-04-25 03:43 25.18440 -79.58693 20811 ft 365 kts 325°
2026-04-25 03:43 25.20597 -79.60159 20240 ft 363 kts 325°
2026-04-25 03:43 25.22739 -79.61614 19674 ft 360 kts 325°
2026-04-25 03:43 25.24870 -79.63061 19140 ft 358 kts 325°
2026-04-25 03:44 25.26984 -79.64498 18586 ft 356 kts 325°
2026-04-25 03:44 25.29090 -79.65929 18008 ft 354 kts 325°
2026-04-25 03:44 25.31177 -79.67348 17411 ft 351 kts 325°
2026-04-25 03:44 25.33247 -79.68755 16851 ft 348 kts 326°
2026-04-25 03:45 25.35302 -79.70154 16337 ft 345 kts 326°
2026-04-25 03:45 25.37334 -79.71537 16041 ft 342 kts 325°
2026-04-25 03:45 25.39194 -79.73151 15940 ft 339 kts 312°
2026-04-25 03:45 25.40706 -79.75142 15901 ft 339 kts 305°
2026-04-25 03:46 25.42061 -79.77224 15835 ft 338 kts 303°
2026-04-25 03:46 25.43395 -79.79362 15777 ft 338 kts 303°
2026-04-25 03:46 25.44731 -79.81510 15300 ft 339 kts 303°
2026-04-25 03:46 25.46066 -79.83642 14790 ft 335 kts 303°
2026-04-25 03:47 25.47396 -79.85751 14274 ft 333 kts 304°
2026-04-25 03:47 25.48723 -79.87844 13756 ft 331 kts 304°
2026-04-25 03:47 25.50046 -79.89920 13210 ft 329 kts 304°
2026-04-25 03:47 25.51364 -79.91984 12718 ft 328 kts 304°
2026-04-25 03:48 25.52675 -79.94035 12216 ft 326 kts 304°
2026-04-25 03:48 25.53982 -79.96079 11718 ft 324 kts 304°
2026-04-25 03:48 25.55279 -79.98107 11355 ft 321 kts 304°
2026-04-25 03:48 25.56558 -80.00105 11188 ft 311 kts 305°
2026-04-25 03:49 25.57766 -80.01995 11053 ft 291 kts 304°
2026-04-25 03:49 25.58914 -80.03797 10955 ft 286 kts 304°
2026-04-25 03:49 25.60056 -80.05595 10892 ft 286 kts 304°
2026-04-25 03:49 25.61208 -80.07412 10459 ft 289 kts 304°
2026-04-25 03:50 25.62353 -80.09216 10099 ft 282 kts 304°
2026-04-25 03:50 25.63468 -80.10974 9730 ft 276 kts 305°
2026-04-25 03:50 25.64565 -80.12703 9340 ft 274 kts 305°
2026-04-25 03:50 25.65570 -80.14488 9064 ft 272 kts 298°
2026-04-25 03:51 25.66422 -80.16367 9004 ft 275 kts 296°
2026-04-25 03:51 25.67232 -80.18255 8930 ft 276 kts 295°
2026-04-25 03:51 25.68048 -80.20182 8888 ft 276 kts 295°
2026-04-25 03:51 25.68862 -80.22109 8821 ft 276 kts 295°
2026-04-25 03:52 25.69680 -80.24047 8555 ft 279 kts 295°
2026-04-25 03:52 25.70497 -80.25985 8132 ft 276 kts 295°
2026-04-25 03:52 25.71047 -80.27999 7708 ft 273 kts 277°
2026-04-25 03:52 25.71105 -80.30097 7330 ft 273 kts 270°
2026-04-25 03:53 25.71031 -80.32201 6942 ft 274 kts 268°
2026-04-25 03:53 25.70930 -80.34304 6558 ft 273 kts 268°
2026-04-25 03:53 25.70827 -80.36401 6173 ft 271 kts 268°
2026-04-25 03:53 25.70725 -80.38484 5803 ft 270 kts 268°
2026-04-25 03:54 25.70624 -80.40563 5423 ft 270 kts 268°
2026-04-25 03:54 25.70523 -80.42639 5092 ft 268 kts 267°
2026-04-25 03:54 25.70383 -80.44697 4842 ft 269 kts 266°
2026-04-25 03:54 25.70216 -80.46759 4602 ft 268 kts 265°
2026-04-25 03:55 25.70043 -80.48814 4349 ft 267 kts 265°
2026-04-25 03:55 25.70004 -80.50860 4101 ft 266 kts 281°
2026-04-25 03:55 25.70718 -80.52711 4016 ft 261 kts 309°
2026-04-25 03:55 25.72053 -80.53888 3993 ft 234 kts 339°
2026-04-25 03:56 25.73592 -80.54235 3927 ft 228 kts 356°
2026-04-25 03:56 25.75162 -80.54352 3689 ft 223 kts 358°
2026-04-25 03:56 25.76679 -80.54095 3426 ft 221 kts 26°
2026-04-25 03:56 25.77814 -80.53012 3170 ft 218 kts 60°
2026-04-25 03:57 25.78147 -80.51420 3034 ft 213 kts 92°
2026-04-25 03:57 25.78040 -80.49766 3001 ft 215 kts 95°
2026-04-25 03:57 25.77959 -80.48177 2942 ft 198 kts 91°
2026-04-25 03:57 25.77968 -80.46657 2697 ft 194 kts 88°
2026-04-25 03:58 25.78040 -80.45172 2453 ft 192 kts 88°
2026-04-25 03:58 25.78109 -80.43732 2204 ft 183 kts 88°
2026-04-25 03:58 25.78169 -80.42330 1975 ft 181 kts 88°
2026-04-25 03:58 25.78226 -80.40955 1756 ft 174 kts 89°
2026-04-25 03:59 25.78279 -80.39693 1483 ft 157 kts 89°
2026-04-25 03:59 25.78327 -80.38511 1324 ft 154 kts 89°
2026-04-25 03:59 25.78375 -80.37310 1113 ft 154 kts 89°
2026-04-25 03:59 25.78423 -80.36142 928 ft 154 kts 89°
2026-04-25 04:00 25.78457 -80.34960 752 ft 153 kts 89°
2026-04-25 04:00 25.78514 -80.33789 541 ft 152 kts 87°
2026-04-25 04:00 25.78566 -80.32615 315 ft 152 kts 88°
2026-04-25 04:00 25.78612 -80.31437 118 ft 153 kts 88°
2026-04-25 04:01 25.78656 -80.30299 29 ft 132 kts 87°
2026-04-25 04:01 25.78693 -80.29454 27 ft 88 kts 88°
2026-04-25 04:01 25.78716 -80.28943 28 ft 41 kts 87°
2026-04-25 04:01 25.78764 -80.28737 29 ft 17 kts 53°
2026-04-25 04:02 25.78844 -80.28679 30 ft 11 kts 11°
2026-04-25 04:02 25.78901 -80.28681 28 ft 8 kts 356°
2026-04-25 04:02 25.78954 -80.28684 28 ft 7 kts 357°
2026-04-25 04:02 25.79002 -80.28687 29 ft 6 kts 356°
2026-04-25 04:03 25.79041 -80.28689 28 ft 5 kts 358°
2026-04-25 04:03 25.79092 -80.28690 27 ft 13 kts 360°
2026-04-25 04:03 25.79190 -80.28689 30 ft 14 kts
2026-04-25 04:03 25.79282 -80.28727 26 ft 14 kts 315°
2026-04-25 04:04 25.79357 -80.28786 29 ft 13 kts 348°
2026-04-25 04:04 25.79426 -80.28821 25 ft 9 kts 318°
2026-04-25 04:04 25.79459 -80.28878 27 ft 10 kts 300°
2026-04-25 04:04 25.79520 -80.28994 27 ft 24 kts 299°
2026-04-25 04:05 25.79599 -80.29152 31 ft 22 kts 299°
2026-04-25 04:05 25.79673 -80.29297 30 ft 22 kts 299°
2026-04-25 04:05 25.79741 -80.29416 29 ft 13 kts 321°
2026-04-25 04:05 25.79815 -80.29419 29 ft 10 kts 11°
2026-04-25 04:06 25.79885 -80.29400 29 ft 10 kts 17°
2026-04-25 04:06 25.79951 -80.29381 28 ft 7 kts
2026-04-25 04:06 25.79980 -80.29378 28 ft 1 kts
2026-04-25 04:06 25.79988 -80.29376 28 ft 4 kts
2026-04-25 04:07 25.80051 -80.29343 30 ft 12 kts 32°
2026-04-25 04:07 25.80114 -80.29297 30 ft 11 kts 33°
2026-04-25 04:07 25.80176 -80.29234 29 ft 15 kts 52°
2026-04-25 04:07 25.80256 -80.29153 29 ft 15 kts 28°
2026-04-25 04:08 25.80356 -80.29137 29 ft 15 kts 350°
2026-04-25 04:08 25.80413 -80.29169 29 ft 13 kts 317°
2026-04-25 04:08 25.80438 -80.29255 29 ft 11 kts 268°
2026-04-25 04:08 25.80435 -80.29341 28 ft 11 kts 267°
2026-04-25 04:09 25.80430 -80.29455 28 ft 9 kts 267°
2026-04-25 04:09 25.80435 -80.29494 28 ft 3 kts 298°
2026-04-25 04:09 25.80449 -80.29507 27 ft 2 kts 326°
2026-04-25 04:09 25.80455 -80.29509 27 ft 1 kts 342°
2026-04-25 04:10 25.80474 -80.29509 28 ft 3 kts 358°
2026-04-25 04:10 25.80493 -80.29510 29 ft 2 kts 358°
2026-04-25 04:10 25.80501 -80.29511 29 ft 1 kts 358°
2026-04-25 04:10 25.80502 -80.29511 29 ft 0 kts 358°
2026-04-25 04:11 25.80508 -80.29511 29 ft 0 kts 358°